[TLELIST] Archives

 

[list_settings.list_name] Current TLEs

June 16th 2021 PST

HST 1 20580U 90037B 21167.13810038 .00000498 00000-0 19126-4 0 9999 2 20580 28.4705 73.7812 0002788 52.4348 93.7852 15.09659655511060 ISS (ZARYA) 1 25544U 98067A 21167.45555758 .00000993 00000-0 26197-4 0 9991 2 25544 51.6441 346.3421 0003471 97.3713 347.3578 15.48989309288484 CXO 1 25867U 99040B 21168.10880294 .00000639 00000-0 00000+0 0 9997 2 25867 55.1305 255.3031 8327186 226.4785 359.8848 0.37810006 21572 ____________________________________________________________________ These 2-Line ...Continue Reading

[list_settings.list_name] Current TLEs

June 15th 2021 PST

HST 1 20580U 90037B 21165.86501687 .00000493 00000-0 18832-4 0 9992 2 20580 28.4702 82.2048 0002747 39.2609 14.3216 15.09658682510657 ISS (ZARYA) 1 25544U 98067A 21166.24579917 .00000653 00000-0 20031-4 0 9994 2 25544 51.6443 352.3286 0003428 95.4762 78.7612 15.48985726288299 CXO 1 25867U 99040B 21168.10880294 .00000639 00000-0 00000+0 0 9997 2 25867 55.1305 255.3031 8327186 226.4785 359.8848 0.37810006 21572 ____________________________________________________________________ These 2-Line ...Continue Reading

[list_settings.list_name] Current TLEs

June 14th 2021 PST

HST 1 20580U 90037B 21164.49685392 .00000489 00000-0 18622-4 0 9998 2 20580 28.4700 91.2574 0002699 24.9628 138.2277 15.09657725510668 ISS (ZARYA) 1 25544U 98067A 21165.45671404 .00001424 00000-0 34023-4 0 9993 2 25544 51.6444 356.2304 0003511 92.6904 358.4326 15.48984926288172 CXO 1 25867U 99040B 21165.46357113 .00000633 00000-0 00000-0 0 9997 2 25867 55.2034 255.4260 8323287 226.4385 359.8761 0.37805554 10430 ____________________________________________________________________ These 2-Line ...Continue Reading

[list_settings.list_name] Current TLEs

June 13th 2021 PST

HST 1 20580U 90037B 21163.88012124 .00000489 00000-0 18598-4 0 9999 2 20580 28.4699 95.3383 0002673 18.5580 26.1883 15.09657267510351 ISS (ZARYA) 1 25544U 98067A 21164.04547793 .00000758 00000-0 21937-4 0 9999 2 25544 51.6446 3.2116 0003497 90.7552 45.6437 15.48977591287958 CXO 1 25867U 99040B 21165.46357113 .00000633 00000-0 00000-0 0 9997 2 25867 55.2034 255.4260 8323287 226.4385 359.8761 0.37805554 10430 ____________________________________________________________________ These 2-Line ...Continue Reading

[list_settings.list_name] Current TLEs

June 12th 2021 PST

HST 1 20580U 90037B 21162.88772080 .00000469 00000-0 17418-4 0 9990 2 20580 28.4697 101.9047 0002629 8.0185 32.5717 15.09656524510202 ISS (ZARYA) 1 25544U 98067A 21163.38670002 .00000787 00000-0 22470-4 0 9990 2 25544 51.6451 6.4702 0003470 86.5323 333.8876 15.48976006287858 CXO 1 25867U 99040B 21165.46209170 .00000633 00000-0 00000+0 0 9995 2 25867 55.2033 255.4261 8323302 226.4386 359.6740 0.37804846 21563 ____________________________________________________________________ These 2-Line ...Continue Reading

[list_settings.list_name] Current TLEs

June 11th 2021 PST

HST 1 20580U 90037B 21162.17815934 .00000440 00000-0 15651-4 0 9994 2 20580 28.4696 106.5998 0002599 0.4204 136.2261 15.09655944510314 ISS (ZARYA) 1 25544U 98067A 21162.30956749 .00001369 00000-0 33046-4 0 9994 2 25544 51.6454 11.7958 0003601 83.9354 86.1053 15.48975763287689 CXO 1 25867U 99040B 21162.81834375 .00000551 00000-0 00000-0 0 9992 2 25867 55.2582 255.5262 8319346 226.4114 359.8431 0.37803540 10428 ____________________________________________________________________ These 2-Line ...Continue Reading

[list_settings.list_name] Current TLEs

June 10th 2021 PST

HST 1 20580U 90037B 21160.97310880 .00000466 00000-0 17203-4 0 9993 2 20580 28.4694 114.5734 0002550 347.2463 67.2548 15.09655320509918 ISS (ZARYA) 1 25544U 98067A 21161.34316587 .00000945 00000-0 25340-4 0 9994 2 25544 51.6455 16.5761 0003655 82.8113 94.7196 15.48970702287530 CXO 1 25867U 99040B 21162.81834375 .00000551 00000-0 00000-0 0 9992 2 25867 55.2582 255.5262 8319346 226.4114 359.8431 0.37803540 10428 ____________________________________________________________________ These 2-Line ...Continue Reading

[list_settings.list_name] Current TLEs

June 9th 2021 PST

HST 1 20580U 90037B 21160.19132479 .00000441 00000-0 15682-4 0 9995 2 20580 28.4693 119.7462 0002518 338.5170 138.7538 15.09654756510001 ISS (ZARYA) 1 25544U 98067A 21160.11120052 .00000910 00000-0 24711-4 0 9991 2 25544 51.6456 22.6700 0003611 79.3705 63.8310 15.48966853287348 CXO 1 25867U 99040B 21160.17361650 .00000467 00000-0 00000-0 0 9996 2 25867 55.3183 255.6282 8314926 226.3850 359.8583 0.37803506 10413 ____________________________________________________________________ These 2-Line ...Continue Reading

[list_settings.list_name] Current TLEs

June 8th 2021 PST

HST 1 20580U 90037B 21159.12843656 .00000397 00000-0 13047-4 0 9995 2 20580 28.4692 126.7791 0002479 326.7333 122.5462 15.09653885509848 ISS (ZARYA) 1 25544U 98067A 21159.27382977 .00001336 00000-0 32454-4 0 9998 2 25544 51.6458 26.8125 0003679 76.4264 74.2872 15.48966250287215 CXO 1 25867U 99040B 21160.17361650 .00000467 00000-0 00000-0 0 9996 2 25867 55.3183 255.6282 8314926 226.3850 359.8583 0.37803506 10413 ____________________________________________________________________ These 2-Line ...Continue Reading

[list_settings.list_name] Current TLEs

June 7th 2021 PST

HST 1 20580U 90037B 21157.41770164 .00000441 00000-0 15707-4 0 9993 2 20580 28.4690 138.0986 0002430 306.9966 186.4285 15.09653273509378 ISS (ZARYA) 1 25544U 98067A 21158.49126275 -.00000540 00000-0 -16239-5 0 9990 2 25544 51.6454 30.6848 0003792 70.9282 33.0947 15.48960384287095 CXO 1 25867U 99040B 21160.17361650 .00000467 00000-0 00000-0 0 9996 2 25867 55.3183 255.6282 8314926 226.3850 359.8583 0.37803506 10413 ____________________________________________________________________ These 2-Line ...Continue Reading
  • This mailing list is a public mailing list - anyone may join or leave, at any time.
  • This mailing list is announce-only.

International Space Station (ISS) / Hubble Space Telescope (HST) / Chandra X-Ray Observatory Orbital Data via EMAIL

Privacy Policy:

Private list